User: anonymous   Login
Location: Unspecified
(0.0000°N, 0.0000°E)
Time: 16:28:56
(UTC+02:00)
Language:

H-2A R/B - Orbit

View from above orbital plane
View from above orbital plane
View from above satellite
View from above satellite

Ground track
Ground track

The orbit data is extracted from the following two-line orbital elements,

1 26899U 01038B   15180.62733000  .00002688  00000-0  94353-3 0  9993
2 26899 028.4020 356.3263 7137478 073.6515 359.3364 02.45793370118760
Epoch (UTC): 29 June 2015 15:03:21
Eccentricity: 0.7137478
inclination: 28.4020°
perigee height: 261 km
apogee height: 33368 km
right ascension of ascending node: 356.3263°
argument of perigee: 73.6515°
revolutions per day: 2.45793370
mean anomaly at epoch: 359.3364°
orbit number at epoch: 11876

The dashed part of the orbit path shows where the satellite is in the earth's shadow,  

DLR